Weather in Tayga

Russia / Primorsky Krai     44°36′39″N   135°26′00″E
temp.,
°C
wind,
m/s
gust,
m/s
humid.,
%
clouds,
%
prec.,
mm/h
press.,
hPa
HPBL,
m
13 april, tue
tue1301:00+4se1269100 0.0 101468
04:00+3se1283100 0.6 1011103
07:00+3ese1197100 5.1 1007129
10:00+3nne1198100 12.4 1003161
13:00+3nw2396100 7.9 998464
16:00+3nw61266100 8.4 9991030
19:00−2nw717611 0.0 10021142
22:00−3nw516480 0.0 10051562
14 april, wed
wed1401:00−4wnw414531 0.0 10081651
04:00−4wnw5144531 0.0 10091422
07:00−5w412452 0.0 10101432
10:000wnw6103199 0.0 10102054
13:00+3wnw61226100 0.0 10082944
16:00+3wnw6143095 0.0 10083258
19:00+1w495320 0.0 10091001
22:00−3wsw22761 0.0 101225
15 april, thu
thu1501:00−3w117857 0.0 101315
04:00−3w11750 0.0 101314
07:00−2w22711 0.0 101456
10:00+6w513301 0.0 10131714
13:00+10wsw4102496 0.0 10122276
16:00+12w58303 0.0 10112210
19:00+7wnw1151100 0.0 101311
22:00+4wsw0160100 0.0 101610
16 april, fri
fri1601:00+3s0165100 0.0 101610
04:00
07:000se119077 0.0 101718
10:00+6sse4874100 0.0 10161122
13:00+7sse51055100 0.0 10141255
16:00+4se3981100 0.0 1012848
19:00+3e2798100 0.4 1010605
22:00+3ene2299100 3.9 1008271
17 april, sat
sat1701:00+3ese259992 1.3 1007378
04:00+2e1299100 2.1 1007126
07:00+1ese2395100 0.0 1006276
10:00+3ese2488100 0.0 1007554
13:00+6sse366577 0.5 10051391
16:00+7sse456397 1.3 10041293
19:00+5sse246950 0.0 1005295
22:00+1nnw118827 0.0 100711